Theta_e
312 311 310 310 309 309 308 308 309 311 313 311 310 312 315 316 316 316 316 316 314 314 315 315 314 314 315 315 315 313 308 300 296 295 295 295 295 296 297 297 297 297 297 296 296 295 295 294 293 292 291 291 290 290 290 289 289 289 288 288 288 288 287 287 287 287 287 287 287 287 287 286 286 286 286 285 285 285 285 284 284 284 284 284 284
312 311 310 310 309 309 309 308 308 309 311 311 311 313 316 315 315 316 315 315 314 314 315 315 313 314 315 315 314 312 306 299 295 295 295 295 295 296 297 297 297 297 296 296 295 295 294 293 292 291 290 290 290 290 289 289 289 288 288 288 288 288 287 287 287 287 287 287 287 287 287 286 286 286 286 285 285 285 285 285 285 284 284 284 284
312 311 310 310 309 309 308 308 307 309 311 311 311 313 314 315 315 315 314 314 313 314 315 315 313 314 315 314 313 311 304 297 294 295 295 295 295 297 297 297 297 296 296 296 295 294 292 291 291 290 290 290 290 289 289 289 289 288 288 288 288 287 287 287 287 287 287 287 287 287 287 287 286 286 286 286 285 285 285 285 285 285 285 284 284
312 311 310 310 309 309 308 308 307 308 310 310 311 312 314 315 315 313 313 313 313 313 315 315 314 314 314 313 312 309 302 295 294 294 294 295 295 296 297 297 297 296 296 295 294 292 291 290 290 289 290 290 290 289 289 289 289 288 288 288 287 287 287 287 287 287 287 287 287 287 287 287 287 287 286 286 286 286 286 286 286 285 285 285 285
312 311 311 310 309 308 308 308 308 307 308 309 311 312 314 315 314 312 312 312 313 314 314 314 313 312 313 312 311 308 300 294 294 294 294 294 295 296 296 296 296 296 294 293 292 291 290 289 290 291 292 293 292 291 290 289 288 288 287 287 287 287 287 287 287 287 287 287 287 287 287 287 287 287 287 287 286 286 286 286 286 286 285 285 285
312 311 311 310 309 309 308 308 308 307 308 309 310 313 315 315 313 312 311 310 313 313 312 311 311 311 311 310 308 305 298 294 294 294 294 294 295 295 295 295 295 294 293 293 291 290 289 290 292 294 295 296 295 294 291 289 288 288 287 287 287 287 287 287 287 287 287 287 287 287 287 287 287 287 287 287 286 286 286 286 286 286 285 285 285
312 311 311 310 309 309 308 308 308 308 308 309 310 312 314 314 313 312 310 310 312 312 311 310 310 310 310 309 306 302 297 294 294 294 294 294 295 295 295 294 294 294 293 291 290 290 291 292 294 295 296 296 296 295 293 290 289 288 287 287 287 287 286 286 286 287 287 287 287 287 287 287 287 287 287 287 286 286 286 286 286 285 285 285 285
313 311 310 310 309 309 308 308 308 308 309 310 310 311 312 313 313 311 310 311 312 311 310 310 309 309 310 309 305 300 295 293 294 294 294 294 294 294 295 294 294 293 292 291 291 292 293 293 294 295 295 295 295 295 294 293 291 290 289 289 288 287 286 286 286 286 286 286 287 287 287 286 286 287 286 286 286 286 286 286 286 285 285 285 285
313 312 310 310 310 309 308 308 308 308 309 310 311 311 312 313 312 310 310 311 312 311 310 309 309 309 310 308 305 299 295 293 293 293 293 294 294 294 294 293 293 292 291 292 292 293 293 294 294 294 294 294 294 294 294 294 293 292 291 291 290 288 286 286 286 286 286 286 286 286 286 286 286 286 286 287 286 286 286 286 286 285 285 285 286
314 312 311 310 310 309 308 308 308 308 309 310 311 311 312 312 312 311 310 311 311 311 310 309 309 309 308 307 304 298 294 293 293 293 293 294 294 294 293 292 292 292 292 293 293 293 293 294 294 293 293 294 294 294 294 293 293 293 292 291 290 288 287 286 286 286 286 286 287 287 286 287 287 287 287 287 286 286 286 286 285 285 285 285 286
314 313 311 310 309 309 308 308 307 308 308 309 310 311 311 311 311 311 310 310 310 310 309 309 308 308 308 307 304 299 294 293 293 293 293 293 293 293 293 292 292 292 292 292 292 293 294 295 294 293 292 293 293 293 293 293 292 292 292 291 290 289 287 286 286 286 286 287 287 287 286 287 287 287 287 287 287 286 286 286 286 285 285 285 286
313 313 311 310 309 308 308 308 307 307 307 308 309 309 310 310 310 310 309 309 309 309 309 308 308 307 306 305 302 298 294 293 293 293 293 293 293 293 292 292 292 292 292 292 292 293 294 294 293 292 292 292 292 292 293 292 291 291 291 291 290 289 288 287 287 287 287 287 287 287 287 287 287 287 287 287 286 286 286 286 286 285 285 285 285
313 312 311 309 308 308 308 307 307 307 306 306 307 308 309 309 309 308 308 308 308 307 307 307 306 305 305 303 299 295 293 292 292 293 293 292 292 292 292 291 291 292 293 293 293 293 294 294 293 292 291 291 291 292 292 292 291 291 290 290 290 290 289 288 287 287 287 287 287 287 287 287 287 287 287 286 286 286 286 286 285 285 285 284 285
312 311 310 309 308 307 307 307 306 306 305 305 306 307 308 308 307 307 307 307 307 307 306 305 304 304 303 301 296 292 291 291 292 292 292 292 292 292 291 291 291 292 293 293 292 293 294 294 294 293 291 290 291 291 292 292 291 291 290 290 290 290 290 289 288 288 287 287 287 287 287 287 287 287 287 286 286 286 285 285 285 285 284 284 284
312 311 310 308 307 306 306 306 305 305 304 304 304 306 306 306 305 306 306 306 306 306 305 305 304 303 301 298 295 292 291 291 292 292 292 292 292 291 291 291 292 292 293 292 292 293 294 294 294 293 291 290 291 291 291 291 291 291 291 291 290 290 290 289 289 288 287 287 287 287 287 287 286 286 286 286 286 285 285 285 285 284 284 284 284
311 310 309 307 306 306 305 305 305 304 304 304 304 304 305 305 305 305 306 306 305 305 305 303 302 300 297 294 293 291 290 291 291 291 291 291 291 291 291 291 291 291 291 291 292 293 294 294 294 292 291 291 291 291 291 291 291 291 291 291 290 290 289 289 289 289 288 287 287 287 286 286 286 286 286 285 285 285 284 284 284 283 283 283 283
311 309 308 306 306 305 305 304 304 304 303 303 304 304 304 304 305 305 305 305 305 304 303 302 300 298 294 291 290 289 289 289 290 290 291 291 291 291 290 290 290 290 291 292 293 293 293 294 293 292 291 291 291 291 290 290 290 290 290 290 290 289 289 289 288 288 288 288 287 286 286 286 285 285 285 284 284 283 282 282 283 282 281 281 281
310 308 307 306 305 304 304 303 303 303 302 303 303 303 304 304 305 305 305 304 303 302 301 300 299 297 294 290 288 288 288 288 289 290 290 290 290 289 289 289 289 290 291 292 293 292 292 293 293 291 291 291 291 290 290 290 290 289 289 289 289 289 288 288 288 288 287 287 287 286 285 285 285 284 284 284 283 282 281 281 281 281 280 280 280
308 306 305 304 303 303 302 302 302 302 301 302 302 303 303 303 303 303 303 302 301 299 298 298 297 296 294 291 288 287 287 287 288 288 288 288 288 288 288 289 289 290 292 292 292 291 292 293 292 292 291 291 290 290 290 289 289 289 288 288 288 288 288 287 286 286 285 285 285 285 285 285 284 284 284 284 283 283 282 281 280 280 280 280 280
306 305 304 303 302 301 301 300 301 301 301 301 301 302 302 302 302 301 300 299 298 297 297 296 296 295 295 293 291 288 287 287 287 287 287 288 288 288 289 289 290 291 292 292 291 291 292 293 293 291 291 290 290 289 289 288 288 288 287 287 287 287 286 285 284 284 284 284 284 284 284 284 284 284 284 283 283 282 282 281 280 280 279 279 279
304 303 302 301 301 300 300 300 299 299 299 300 300 300 301 300 300 299 298 298 297 297 296 296 295 295 294 294 293 291 290 289 288 288 288 288 289 289 289 289 290 291 292 292 291 290 291 292 292 291 290 289 289 288 288 287 286 286 286 285 285 285 284 284 284 283 283 283 283 283 283 284 283 283 283 283 282 282 281 280 280 279 279 279 279
303 302 301 300 300 299 299 298 298 298 298 298 299 299 298 298 297 297 297 296 296 296 296 295 295 295 294 293 293 293 292 291 291 290 290 290 289 289 290 290 290 291 292 292 291 290 291 292 291 290 289 288 288 287 286 286 285 284 284 284 283 283 282 282 282 282 282 282 282 282 282 282 282 282 281 281 281 280 280 279 279 279 279 278 278
302 301 300 300 299 298 298 298 298 298 298 297 297 297 297 296 296 296 296 296 295 296 296 295 295 295 294 294 293 293 293 292 292 291 291 291 290 290 290 291 291 292 292 292 291 291 291 291 289 288 287 287 286 286 285 284 284 283 283 283 282 282 282 281 281 281 281 281 281 281 281 281 281 281 280 280 280 280 279 279 278 278 278 278 277
301 301 300 299 299 298 298 298 298 298 298 297 297 297 296 296 296 296 296 296 296 296 295 295 295 294 294 294 293 293 293 293 292 292 292 292 292 292 292 292 292 292 292 291 291 291 290 289 288 287 286 286 286 285 285 284 284 283 283 282 282 282 281 281 281 281 281 281 281 281 281 280 280 280 280 279 279 278 278 278 278 277 277 277 276
301 300 300 300 299 299 299 298 298 298 298 297 297 297 296 297 297 297 296 296 295 295 295 295 294 294 294 294 293 293 293 293 293 293 292 292 292 292 292 292 291 291 291 290 289 289 288 288 287 287 287 287 286 286 285 285 284 283 283 282 282 281 281 281 281 280 280 280 280 280 279 279 279 279 279 278 278 278 277 277 277 276 276 276 276
301 300 300 300 299 299 299 298 297 297 297 297 297 297 297 297 297 296 296 295 295 295 295 294 294 293 293 292 292 292 292 292 292 291 291 291 291 291 291 290 290 289 289 289 289 288 288 288 288 287 287 287 286 286 286 285 284 284 283 282 282 281 281 280 280 279 279 279 279 279 279 279 278 278 278 278 278 277 277 277 276 276 276 275 275
302 301 301 301 300 299 299 299 298 297 297 297 297 297 297 297 297 296 296 296 295 294 294 293 292 292 291 291 291 291 290 290 290 290 290 290 290 290 289 289 289 289 289 289 288 288 288 288 287 287 287 287 286 286 285 285 284 283 282 281 281 280 279 279 279 278 278 278 278 278 278 278 278 278 277 277 277 276 276 276 275 275 275 275 274
303 303 302 302 301 300 300 299 299 299 298 298 297 297 296 296 295 294 294 294 293 293 292 292 291 291 291 291 291 290 290 290 290 290 289 289 289 289 289 289 289 289 288 288 288 288 288 287 287 287 287 286 286 285 285 284 284 283 281 280 279 279 278 278 277 277 277 277 277 277 277 276 276 276 276 276 276 276 276 276 275 275 275 274 274
303 303 303 302 301 301 300 300 299 299 298 297 296 295 294 293 292 292 291 291 291 291 291 291 291 290 290 290 290 290 290 290 289 289 289 289 289 289 289 289 289 288 288 288 288 288 288 287 287 286 286 286 285 285 284 283 282 280 279 278 278 277 277 277 276 276 276 276 276 276 276 275 275 275 275 275 275 275 275 275 275 275 274 274 274
303 302 302 301 301 300 299 298 297 296 296 294 293 292 292 291 291 291 291 291 290 290 290 290 290 290 290 290 290 290 290 290 289 289 289 289 289 289 289 289 289 288 288 288 287 287 287 286 286 286 285 285 284 283 282 280 279 278 277 277 277 276 276 276 276 275 275 275 275 275 275 274 274 274 274 274 274 274 274 274 275 274 274 273 273
300 300 299 298 298 297 296 295 294 294 293 293 292 292 292 291 291 290 290 290 290 290 290 290 290 290 290 290 290 289 290 289 289 289 289 289 289 289 288 288 288 287 287 287 286 286 286 285 285 284 284 283 283 282 280 279 278 277 277 277 276 276 276 276 275 275 275 274 274 274 274 273 273 273 272 273 273 273 273 273 273 273 273 273 272
297 297 296 296 295 295 294 294 293 293 292 292 291 291 291 290 290 290 290 290 290 290 290 290 290 289 289 290 290 289 289 289 289 289 289 288 288 288 287 287 287 286 286 285 285 285 284 284 283 283 283 282 282 281 279 278 277 277 277 276 276 276 275 275 275 274 274 273 273 273 272 272 271 271 270 270 270 270 270 270 270 270 271 271 271
295 295 294 294 293 293 293 292 292 291 291 291 290 290 290 290 290 290 290 290 289 289 289 289 289 290 290 290 289 289 289 289 288 288 288 287 287 286 286 286 285 285 284 284 284 283 283 282 282 282 281 281 280 279 278 278 277 277 276 276 275 275 275 274 274 273 273 272 272 271 271 270 270 270 269 269 269 268 268 268 268 268 268 268 268
293 292 292 291 291 291 291 290 290 290 290 290 290 290 290 290 290 290 290 290 290 290 290 290 290 290 289 289 289 289 288 288 287 287 287 286 286 285 285 285 284 284 283 283 282 282 282 281 281 280 280 279 278 278 277 276 276 275 275 274 274 274 273 273 272 272 271 271 271 270 270 270 269 269 269 268 268 268 267 267 266 266 266 266 266
291 291 291 290 290 290 290 290 290 290 290 290 290 290 290 290 289 290 290 290 290 290 290 290 289 289 289 288 288 287 287 287 286 286 285 285 285 284 284 283 283 283 282 282 282 281 281 280 279 279 278 277 277 276 275 275 274 274 273 273 273 272 272 272 271 271 271 271 270 270 269 269 269 268 268 268 267 267 267 266 266 265 265 265 265
291 291 291 290 290 290 290 290 290 290 290 290 290 290 289 289 290 290 290 290 290 290 289 289 289 288 288 287 287 286 286 286 285 285 284 284 284 283 283 282 282 282 281 281 281 280 279 279 278 277 276 276 275 274 274 273 273 273 272 272 272 272 271 271 271 270 270 270 269 269 268 268 268 268 267 267 267 266 266 266 265 265 264 264 264
291 291 291 291 291 290 290 290 290 290 290 289 289 290 290 290 290 290 290 290 289 289 288 288 288 287 287 286 286 286 285 285 284 284 283 283 283 282 282 282 281 281 281 280 279 279 278 277 277 276 275 274 274 273 273 273 273 272 272 272 271 271 271 270 270 270 270 269 269 268 268 268 268 267 267 267 266 266 266 265 265 265 264 264 264
291 291 291 291 290 290 290 290 290 289 289 290 290 290 290 290 290 290 289 289 288 288 287 287 287 286 286 286 285 285 284 284 284 283 283 282 282 282 281 281 281 280 279 279 278 277 276 276 275 275 274 274 273 273 273 273 272 272 271 271 271 270 270 270 269 269 269 269 268 268 268 267 267 267 267 266 266 266 265 265 265 264 264 263 263
290 290 290 290 290 290 290 290 290 290 290 290 290 290 290 290 290 289 288 288 287 287 287 286 286 286 285 285 284 284 284 283 283 282 282 282 281 281 281 280 279 279 278 277 277 276 275 275 275 274 274 273 273 273 272 272 272 271 271 270 270 270 269 269 269 269 269 269 268 268 267 267 267 267 266 266 266 265 265 265 264 264 263 263 263
290 290 290 290 290 290 290 290 290 290 290 290 290 290 289 289 288 288 287 287 286 286 286 286 285 285 284 284 284 283 283 282 282 282 281 281 281 280 279 279 278 277 276 276 275 275 275 274 274 274 273 273 273 272 272 271 271 270 270 270 269 269 269 269 269 268 268 268 268 267 267 267 267 267 266 266 266 265 265 265 264 264 263 263 263
290 290 290 290 290 290 290 290 290 290 290 290 289 289 288 288 287 287 286 286 286 286 285 285 284 284 284 283 283 282 282 282 281 281 281 280 280 279 278 277 276 276 275 275 275 274 274 274 273 273 273 272 272 271 271 270 270 270 270 269 269 269 268 268 268 268 268 268 268 267 267 267 267 266 266 266 266 265 265 265 264 264 263 263 263
290 290 290 290 290 290 290 290 290 290 289 289 288 287 287 287 286 286 286 285 285 285 285 284 284 283 283 282 282 282 281 281 281 280 280 279 278 277 277 276 276 275 275 274 274 274 273 273 273 273 272 271 271 270 270 270 270 269 269 269 269 269 268 268 268 268 268 267 267 267 267 267 266 266 266 266 265 265 265 265 264 264 264 263 263
290 290 290 290 290 290 290 290 289 288 288 287 287 287 286 286 286 285 285 285 284 284 284 283 283 283 282 282 281 281 281 280 280 279 278 277 277 276 276 275 275 275 274 274 274 273 273 273 272 272 271 271 270 270 270 269 269 269 269 269 269 269 269 268 268 268 267 267 267 267 267 267 266 266 266 266 265 265 265 265 264 264 264 264 264
290 290 290 290 290 289 289 288 288 287 287 286 286 286 286 285 285 285 285 284 284 283 283 283 282 282 281 281 281 280 280 279 279 278 277 276 276 275 275 275 274 274 274 273 273 273 273 272 272 271 271 270 270 270 269 270 270 270 270 270 270 269 269 269 268 268 268 267 267 267 266 266 266 266 266 266 265 265 265 265 264 264 264 264 264
290 290 290 289 289 288 288 287 287 286 286 286 286 285 285 285 284 284 284 284 283 283 282 282 281 281 281 281 280 280 279 278 277 276 276 275 275 275 274 274 274 273 273 273 273 272 272 272 271 271 270 270 270 269 269 270 270 270 270 270 270 269 269 269 269 268 268 268 268 267 267 266 266 266 266 266 266 265 265 265 264 264 264 264 264
289 289 289 288 288 287 287 286 286 286 285 285 285 285 284 284 284 284 283 283 282 282 281 281 281 280 280 280 279 278 277 277 276 275 275 274 274 274 274 273 273 273 273 273 272 272 272 271 271 270 270 270 270 270 270 270 270 270 270 270 269 269 269 269 269 268 268 268 268 267 267 267 266 266 266 266 266 266 265 265 265 264 264 264 264
289 288 287 287 286 286 286 286 285 285 285 285 284 284 284 283 283 283 282 282 281 281 281 280 280 280 279 278 277 277 276 275 275 275 274 274 274 273 273 273 273 272 272 272 272 272 271 271 270 270 270 270 270 270 270 270 270 270 270 269 269 269 269 268 268 268 268 268 268 268 267 267 266 266 266 265 265 265 265 265 265 264 264 264 264
287 287 286 286 286 285 285 285 285 284 284 284 283 283 283 282 282 281 281 281 280 280 280 280 279 278 278 277 276 276 275 275 274 274 273 273 273 273 272 272 272 272 272 272 271 271 271 270 270 270 270 270 270 270 270 269 269 269 269 269 269 269 268 268 268 268 268 268 268 268 267 267 267 266 266 266 265 265 265 265 264 264 264 264 264
286 286 285 285 285 284 284 284 283 283 283 282 282 282 281 281 281 280 280 280 280 279 279 278 278 277 276 276 275 275 274 274 274 273 273 273 272 272 272 272 272 271 271 271 271 270 270 270 269 269 269 270 270 270 269 269 269 269 269 269 269 268 268 268 268 268 268 268 268 268 267 267 267 266 266 266 266 265 265 265 264 264 264 264 264
285 285 284 284 284 283 283 283 282 282 281 281 281 281 280 280 280 280 279 279 279 278 278 277 276 276 275 275 274 274 274 273 273 272 272 272 272 271 271 271 271 271 271 270 270 270 269 269 269 269 269 269 270 269 269 269 269 269 269 269 268 268 268 268 268 268 268 268 268 268 267 267 267 266 266 266 266 266 265 265 265 264 264 264 264
284 283 283 283 282 282 282 281 281 280 280 280 280 280 279 279 279 279 278 278 277 277 276 276 275 275 274 274 273 273 273 273 272 272 272 271 271 271 271 271 271 270 270 270 269 269 269 269 269 269 269 269 269 269 269 269 269 269 269 268 268 268 268 268 268 268 268 268 268 268 267 267 267 266 266 266 266 266 265 265 265 265 264 264 264
Wind_Speed
25 25 27 28 28 29 30 30 32 33 35 34 34 34 35 34 33 32 30 27 24 26 28 27 26 31 38 40 38 36 36 37 37 37 37 36 36 35 34 32 30 28 25 23 21 19 18 16 15 13 12 11 11 12 12 13 14 15 16 16 17 18 18 19 20 21 23 23 22 23 23 23 25 26 26 26 27 28 28 28 29 30 30 30 30
24 24 26 27 27 28 28 28 30 32 34 34 33 34 34 33 32 30 28 26 25 27 30 29 27 30 37 39 37 36 38 38 38 38 38 37 37 36 34 32 30 28 25 22 20 19 16 15 13 12 11 10 10 11 13 14 15 16 17 18 19 19 19 19 21 22 23 24 23 23 24 25 25 26 27 27 28 29 29 30 30 31 31 31 31
24 24 25 26 26 27 27 27 29 30 32 32 33 34 34 33 31 29 26 26 26 28 31 32 29 30 35 37 36 37 39 39 39 38 38 37 37 36 34 32 29 28 25 21 19 17 15 13 11 10 9 9 10 12 13 15 16 18 19 20 20 20 20 20 21 22 23 25 25 24 25 26 26 26 27 27 28 29 30 31 32 32 32 31 31
23 23 24 25 25 26 27 27 28 30 31 31 32 32 33 33 29 26 25 27 29 30 32 34 31 29 33 36 35 38 41 40 39 38 38 38 37 36 34 32 29 26 23 20 17 15 13 11 9 8 8 10 11 12 14 15 18 19 20 21 21 22 22 22 22 23 24 25 26 26 26 27 27 27 28 28 28 30 31 32 32 33 33 32 33
21 22 23 24 25 26 27 28 29 30 30 31 31 31 32 31 28 24 25 27 29 28 30 32 30 29 32 35 37 39 41 41 39 38 38 38 38 36 33 31 28 25 22 19 16 14 12 10 9 10 11 12 12 13 14 15 18 20 21 22 23 23 24 24 24 24 25 26 27 27 28 29 29 29 29 29 30 31 32 33 34 34 33 33 33
21 22 22 24 25 27 28 29 29 30 30 31 31 30 31 31 27 24 25 27 28 28 27 27 27 28 30 33 37 41 42 41 40 39 39 39 38 36 33 30 27 23 21 18 16 14 12 11 12 12 12 13 14 15 15 16 18 21 22 23 24 25 26 26 26 26 26 27 28 29 30 31 31 30 30 30 31 32 33 34 34 34 35 34 34
22 22 23 24 26 27 29 29 29 29 29 30 30 30 31 31 28 26 27 28 29 29 27 27 28 30 30 32 37 42 43 41 40 39 39 39 39 36 33 30 26 23 21 18 16 14 13 13 14 13 12 12 14 16 17 18 19 21 23 25 25 27 28 28 28 28 28 28 29 31 32 33 33 31 31 32 32 32 33 33 34 34 35 36 36
23 24 24 24 26 27 28 29 29 30 29 29 30 30 31 31 29 27 28 29 31 30 27 26 28 29 29 31 36 42 43 42 41 40 40 39 38 35 33 30 27 24 21 18 16 15 15 17 16 14 12 12 14 16 19 21 23 25 26 26 26 27 29 30 30 29 29 30 31 33 34 34 34 32 32 33 33 33 32 33 35 35 35 36 37
23 25 25 25 26 26 27 28 29 30 30 30 30 31 31 32 30 28 27 28 30 31 29 28 28 28 30 32 37 43 44 43 41 40 39 39 38 36 33 30 27 24 21 19 18 18 18 19 18 16 14 13 14 17 19 22 25 27 28 27 27 27 29 30 31 30 30 31 33 34 35 35 34 33 34 34 33 33 33 33 35 36 36 38 39
23 25 26 26 25 25 26 27 28 31 32 32 31 31 31 31 31 30 28 28 30 31 31 29 28 29 31 33 38 43 44 42 40 39 39 39 39 37 33 29 26 23 22 21 21 20 20 21 20 18 16 15 15 18 19 21 23 26 28 28 27 28 30 31 31 31 31 33 34 34 36 36 35 34 35 35 34 34 34 34 35 36 37 40 41
23 25 27 27 26 25 26 28 28 30 33 32 31 32 31 30 29 29 29 29 31 34 33 31 30 31 32 33 37 41 44 43 41 40 40 39 38 35 32 29 27 25 24 24 23 22 21 23 22 20 19 18 18 19 20 21 22 24 26 27 28 29 30 31 32 32 33 34 36 36 36 37 36 35 36 36 35 35 35 35 36 38 39 41 43
24 25 27 28 27 27 27 28 28 28 31 32 31 31 31 29 27 27 29 30 30 33 34 33 32 32 32 33 37 42 45 44 42 41 40 39 36 33 31 29 28 26 26 26 25 24 24 24 24 23 23 24 24 22 22 22 22 23 25 26 29 30 31 32 34 34 34 36 38 38 38 38 38 38 37 37 36 37 37 38 39 41 41 42 44
24 26 27 29 28 28 27 28 28 27 28 29 30 31 31 29 27 27 30 30 29 29 32 33 33 32 32 34 38 43 45 44 42 41 39 37 35 33 31 30 28 27 27 27 27 26 25 25 26 27 27 28 29 28 25 24 23 23 25 27 30 32 34 35 36 36 37 39 41 41 40 40 40 40 39 39 39 40 40 41 42 43 44 45 47
25 26 28 29 29 28 28 28 29 27 25 26 28 30 30 28 27 28 30 29 27 26 28 29 30 30 30 32 37 42 44 43 41 40 38 36 35 33 31 30 29 29 29 29 29 27 26 27 29 30 30 31 31 31 29 27 25 25 28 30 32 34 36 38 39 39 40 42 43 44 43 42 43 42 41 42 43 43 44 44 45 46 47 48 49
25 26 28 28 28 28 28 28 28 27 25 25 26 27 28 26 27 28 29 27 25 24 25 26 26 26 28 30 34 38 41 41 40 40 38 37 35 33 33 32 32 31 31 31 30 28 27 30 32 32 31 32 33 33 32 31 30 30 31 33 35 36 38 40 41 42 44 45 45 46 46 45 45 45 44 45 46 46 47 47 48 49 49 50 51
26 26 27 27 27 28 28 28 28 27 26 25 24 25 25 25 26 26 26 24 23 23 24 25 24 24 26 29 32 35 39 41 41 40 38 37 36 36 35 34 33 32 32 31 30 29 30 31 32 32 32 33 34 34 34 34 35 36 37 38 39 40 41 42 42 44 46 47 48 49 49 49 49 48 48 48 48 49 48 49 50 49 48 50 51
25 26 26 25 25 25 26 26 26 26 25 25 24 23 23 24 25 25 24 23 21 22 25 25 25 24 25 28 31 35 37 39 39 39 38 39 39 37 35 34 33 32 31 30 31 31 31 32 32 32 33 34 35 35 36 37 39 41 42 43 44 46 46 45 45 45 46 47 49 50 51 51 51 50 50 48 47 43 41 45 50 47 45 48 51
24 24 23 22 22 22 22 23 24 24 24 24 24 23 22 23 25 25 24 22 21 21 23 23 23 23 23 25 28 32 35 37 38 39 39 39 37 35 33 32 32 31 31 32 33 32 33 34 33 33 34 35 35 36 37 40 42 44 46 48 50 52 52 50 49 48 47 48 49 50 51 51 50 49 48 48 45 40 36 39 44 44 44 47 50
22 20 19 18 19 19 20 21 21 21 22 22 22 22 22 22 23 23 23 21 19 19 20 20 20 20 21 23 26 29 31 33 34 35 34 34 33 32 31 31 31 32 33 34 34 33 34 35 35 34 35 36 36 37 39 41 44 46 49 51 53 56 55 51 48 48 47 48 49 49 51 51 50 49 49 48 47 43 40 39 39 41 44 47 48
18 17 17 17 17 17 17 18 18 18 19 19 20 21 21 21 20 19 18 16 15 15 14 13 13 14 15 19 23 27 28 29 29 29 29 30 30 30 31 32 34 36 36 36 35 34 36 37 36 35 35 36 37 39 40 43 45 48 49 52 55 56 52 48 47 46 46 48 49 50 51 52 51 50 49 48 46 43 39 36 34 35 39 43 46
17 17 17 17 17 16 16 15 15 16 16 17 18 19 19 19 17 14 12 11 11 10 10 10 10 11 12 14 18 23 27 29 30 30 31 31 32 33 34 36 37 38 38 37 37 37 39 40 38 35 35 37 39 41 42 44 45 47 49 50 51 49 45 43 44 43 43 44 45 47 48 49 49 48 47 45 43 41 38 36 33 32 33 35 38
18 18 18 18 17 17 16 16 15 15 15 16 16 16 16 15 13 12 11 11 12 12 11 11 11 10 11 11 13 16 20 24 28 31 33 34 35 36 37 38 38 39 39 39 39 40 40 39 36 34 36 38 41 42 44 44 43 44 44 44 41 37 34 35 37 37 38 41 42 44 46 46 46 46 45 44 43 41 40 39 36 34 33 32 32
18 19 19 19 18 18 17 16 16 16 16 15 15 14 14 14 14 14 14 14 14 13 13 13 12 12 11 11 11 11 13 16 20 24 28 31 34 36 37 38 38 38 38 38 38 37 36 35 34 35 37 39 41 41 41 40 38 37 36 34 32 30 29 30 32 34 36 38 39 41 43 44 44 43 43 43 42 41 41 40 38 36 35 33 30
20 20 20 20 19 19 18 18 17 17 17 17 16 16 16 16 17 17 16 16 15 15 14 13 13 12 11 11 11 11 12 13 14 17 20 23 26 28 30 30 31 31 31 32 33 32 32 33 34 35 36 38 38 39 38 37 35 34 34 33 32 32 33 34 35 36 38 39 39 40 41 41 40 40 39 39 39 39 40 39 38 36 34 32 30
21 21 21 21 21 21 20 20 19 19 18 18 18 19 19 19 18 18 17 16 15 14 13 13 12 12 12 12 12 12 12 13 13 14 16 17 18 20 21 22 24 25 26 27 28 29 30 31 32 33 35 36 36 37 37 36 35 35 35 34 34 34 34 35 34 34 35 36 36 36 35 34 32 33 34 36 36 37 38 38 36 35 33 31 30
21 22 22 22 22 22 22 22 21 21 20 19 18 18 18 18 17 16 16 15 14 13 13 13 13 13 13 13 13 13 13 13 13 14 15 15 16 16 17 18 19 20 22 23 24 25 27 29 31 32 33 34 35 35 36 35 34 34 33 32 31 30 28 28 27 26 27 29 30 30 30 29 29 30 33 35 36 36 36 35 34 33 32 32 32
21 22 22 22 22 22 22 23 23 22 21 20 18 17 16 16 15 14 14 14 14 14 14 14 14 14 14 13 13 13 13 13 12 12 12 11 11 12 12 13 15 16 18 20 22 24 26 28 29 30 30 31 32 32 32 31 31 30 29 27 26 25 24 23 22 22 23 24 26 27 28 29 31 32 33 33 33 33 33 33 33 33 32 32 32
21 21 21 22 22 22 22 21 22 22 21 20 19 18 17 16 15 15 14 14 14 14 14 14 14 14 13 13 12 11 11 10 9 8 7 7 8 9 10 12 14 15 17 19 21 23 24 25 26 27 27 27 28 28 28 28 28 28 26 24 23 22 22 22 22 22 22 22 23 25 25 26 28 29 30 30 30 31 32 32 32 32 32 31 32
21 21 22 22 22 22 21 20 20 20 21 20 19 18 18 18 17 17 17 16 16 16 16 15 15 14 12 11 10 8 8 7 7 6 7 8 9 10 11 12 14 15 17 19 20 22 23 24 24 24 24 25 26 27 27 28 27 27 26 24 24 23 23 23 23 23 23 23 24 25 25 26 27 29 30 30 30 31 32 33 33 33 32 32 32
22 22 22 22 22 22 22 21 20 20 20 21 21 21 22 21 20 20 20 19 18 18 16 15 14 12 11 10 9 8 7 7 7 8 8 9 10 11 12 14 15 16 17 18 20 21 22 23 23 24 25 26 27 27 27 27 27 26 26 25 25 25 25 25 25 25 25 26 26 27 28 29 30 31 32 33 33 33 34 35 35 35 34 34 33
22 23 22 22 22 22 22 22 21 21 21 21 22 23 23 23 23 22 20 19 17 16 14 13 12 11 10 9 9 9 8 8 8 9 9 10 11 12 13 15 16 17 17 17 19 21 22 23 24 25 26 26 27 27 27 27 27 27 27 27 27 27 28 28 28 28 29 29 29 29 29 30 31 32 32 33 35 35 35 36 37 37 36 36 35
22 23 23 22 22 22 22 22 22 22 22 22 22 22 22 23 23 22 20 17 16 14 13 12 12 11 11 10 9 9 9 9 9 10 10 11 12 13 14 16 17 16 16 17 18 20 22 23 24 24 25 26 26 26 26 27 27 27 27 28 29 29 30 30 30 31 31 31 31 30 30 30 30 30 31 32 33 34 34 34 35 35 36 36 36
20 22 22 23 23 23 23 23 23 23 23 23 22 21 20 19 19 19 19 17 15 14 13 13 12 11 10 9 9 9 10 10 10 11 11 11 12 13 14 16 17 16 15 16 18 19 21 22 23 24 24 25 25 25 25 26 27 27 27 28 29 30 31 31 31 31 30 30 29 29 28 28 28 28 29 29 30 31 31 31 31 32 33 34 34
20 21 21 22 23 23 23 22 22 22 21 21 20 20 18 16 15 15 15 15 15 14 14 13 12 11 10 9 9 10 11 10 10 10 11 12 13 14 14 16 16 16 15 16 17 18 20 21 21 22 23 23 24 24 24 24 25 25 25 26 27 27 28 28 28 28 27 27 27 27 26 26 26 26 27 26 27 27 28 28 28 28 28 29 30
21 21 21 21 21 21 21 21 20 20 20 19 18 18 17 16 14 13 12 12 12 12 12 12 11 10 10 10 11 11 11 11 11 11 12 13 14 14 14 14 15 16 16 16 17 18 19 20 21 22 22 22 22 23 23 23 23 23 24 24 24 25 25 25 25 26 26 26 26 25 25 25 25 25 25 25 25 25 26 26 27 26 26 26 27
21 21 21 20 20 19 19 19 19 18 18 17 17 16 15 15 14 13 12 11 11 11 11 11 11 11 11 11 11 11 11 11 12 12 12 13 13 13 14 14 15 16 17 17 18 19 19 20 21 21 22 21 21 21 21 21 22 22 22 23 23 24 24 24 24 24 24 24 24 24 23 23 23 24 24 24 24 24 24 25 26 26 26 25 25
20 19 19 19 19 18 18 18 18 17 17 16 16 15 15 14 13 13 12 12 12 12 12 12 11 11 11 11 11 11 11 12 13 13 13 13 13 14 14 15 16 16 17 18 19 19 20 20 20 20 21 20 20 20 20 20 21 21 22 22 23 23 23 23 23 23 23 23 23 22 22 22 22 22 23 23 23 24 24 24 25 25 25 25 24
19 18 18 18 18 18 18 17 17 17 17 16 16 15 14 14 14 13 13 13 13 13 12 12 11 11 11 11 12 12 12 13 13 13 14 14 14 15 15 16 17 18 18 18 19 19 19 19 19 20 20 20 19 20 20 20 21 21 21 21 21 21 22 21 21 21 21 21 21 21 21 21 21 21 21 22 23 23 24 24 24 24 24 24 23
19 18 18 18 17 17 17 16 16 17 16 16 16 15 15 15 14 14 14 14 13 13 12 11 11 11 11 12 13 13 13 14 14 14 15 15 16 16 17 17 18 18 18 18 18 18 19 19 19 19 19 19 19 19 20 20 20 20 20 20 20 20 20 20 20 20 20 20 20 20 20 20 20 20 21 21 22 23 23 23 22 22 22 22 21
20 19 19 18 17 17 17 16 16 16 16 16 16 16 16 16 15 15 14 14 13 13 12 12 12 12 12 13 14 14 14 14 14 15 16 17 17 18 18 18 18 18 18 18 18 18 18 18 18 18 18 18 19 19 19 19 19 19 18 18 18 18 18 19 19 19 19 19 19 19 20 20 20 20 20 20 20 21 22 22 21 19 19 19 18
19 18 18 18 17 17 18 18 17 17 17 16 16 16 16 16 15 15 14 14 13 13 12 12 12 13 13 14 14 15 15 15 16 16 17 18 19 19 18 18 18 18 18 18 17 17 17 17 17 17 17 18 18 18 18 18 18 17 17 17 17 17 17 18 18 18 18 18 19 19 19 20 20 20 20 19 20 20 20 20 20 18 17 17 16
18 18 17 18 18 18 18 18 18 17 17 17 17 16 16 15 15 14 14 13 13 13 13 14 14 14 14 14 14 15 15 16 17 18 19 19 19 19 18 18 18 18 17 17 17 16 16 16 16 17 17 18 18 18 17 17 16 16 16 16 16 16 16 17 17 18 18 18 18 18 19 19 19 19 19 19 19 19 19 19 18 17 16 16 16
18 18 18 18 18 18 18 17 17 17 17 17 16 16 15 15 15 14 14 14 14 14 14 15 15 15 15 14 15 16 17 18 19 19 20 20 19 19 18 18 18 17 17 17 16 16 15 16 16 17 17 17 17 16 16 15 15 15 15 16 16 16 16 17 17 17 18 18 17 18 18 18 18 18 18 18 19 19 19 18 18 17 17 16 16
19 19 19 19 18 18 18 18 18 17 17 16 16 15 15 15 15 14 14 14 14 15 15 16 16 16 16 16 17 17 18 19 20 20 20 19 19 18 18 18 17 17 17 16 16 16 16 16 16 16 17 17 16 15 15 15 15 15 15 16 16 16 17 17 18 18 18 18 17 17 17 17 17 17 17 18 18 19 19 18 18 17 17 17 17
20 20 19 19 19 19 18 18 18 17 16 16 15 15 15 15 15 15 15 15 15 16 16 16 16 17 17 18 19 19 20 20 20 20 19 19 19 18 18 17 17 17 17 17 16 16 16 16 16 16 16 17 16 15 15 15 15 15 16 16 17 17 18 18 19 18 18 18 18 17 17 16 16 16 17 17 18 18 19 18 18 18 17 17 17
20 19 19 18 18 18 18 17 16 16 16 15 15 15 15 15 15 15 16 16 16 16 17 17 17 18 19 19 20 20 20 20 20 20 19 19 19 19 18 17 17 17 17 17 17 17 17 17 16 16 16 16 16 16 16 15 15 15 16 17 18 18 18 19 19 19 19 19 18 17 17 16 15 16 16 16 17 18 18 18 18 17 17 17 17
19 19 19 18 17 17 17 16 16 16 15 15 15 15 15 16 16 16 16 17 17 17 18 18 18 19 20 20 21 21 20 20 20 20 20 19 19 19 18 18 18 18 18 18 18 18 17 17 17 17 16 16 17 17 16 16 16 17 17 18 18 18 18 19 19 19 19 19 18 18 17 16 15 15 15 15 16 17 17 17 17 17 16 16 16
19 18 18 17 17 16 16 16 15 15 15 15 15 15 16 16 16 17 17 17 18 18 18 19 20 20 21 21 21 21 20 20 20 20 20 20 20 19 19 19 19 19 19 19 19 19 18 18 18 18 17 17 17 17 17 17 17 18 18 18 18 18 18 18 18 18 18 18 18 18 17 16 16 15 15 15 15 16 16 17 17 16 16 15 15
18 18 17 17 16 16 15 15 15 15 15 15 15 16 16 16 17 17 18 18 18 19 20 20 21 21 21 21 21 21 21 21 20 20 20 20 20 20 20 20 20 20 20 19 19 19 19 19 19 19 18 18 18 18 18 18 18 18 18 18 18 18 17 17 17 17 17 17 17 17 17 16 15 15 14 15 15 15 16 16 16 16 15 15 15
18 17 17 16 16 15 15 15 15 15 15 15 16 16 17 17 17 18 18 19 20 20 21 21 21 22 21 21 21 21 21 21 21 21 21 21 21 21 21 21 21 21 21 21 20 20 20 20 20 20 20 19 19 19 18 18 18 18 18 18 17 17 17 16 16 16 16 16 16 16 16 15 15 15 15 15 15 15 15 16 16 16 16 15 15
17 16 16 15 15 15 14 14 14 15 15 15 16 17 17 18 18 19 20 20 21 21 22 22 22 21 21 21 21 22 22 22 22 21 21 21 21 22 22 22 22 23 22 22 21 21 21 21 21 21 21 20 20 20 19 19 18 18 18 17 17 17 17 16 15 16 16 16 16 16 15 15 14 14 15 15 15 15 16 16 17 17 16 16 16
Wind_Direction
257 254 253 250 245 241 237 234 231 228 229 230 229 229 231 234 236 237 234 232 232 233 231 231 233 229 223 222 221 218 215 213 212 213 211 209 208 207 207 207 208 208 211 213 215 218 221 225 229 233 238 245 252 257 261 264 266 266 266 267 267 268 270 272 274 276 282 286 287 287 288 288 288 289 290 291 292 293 294 294 295 296 297 298 299
262 258 256 253 250 244 239 237 234 230 229 228 227 227 228 231 235 233 228 230 236 235 229 226 228 231 229 224 221 219 216 214 214 214 212 210 208 207 207 208 209 209 211 213 215 218 223 227 232 236 241 251 260 266 268 269 269 269 270 270 270 272 272 274 276 278 281 286 288 289 288 288 288 290 292 293 294 295 295 295 295 295 295 297 298
266 261 258 256 253 248 242 239 236 231 228 227 226 225 227 232 233 228 227 233 238 238 231 223 224 233 232 226 223 221 217 215 216 215 213 211 209 208 208 209 210 211 212 214 215 218 223 227 232 238 245 256 264 270 272 273 273 273 272 272 273 274 274 274 276 278 281 284 287 288 289 290 291 291 293 295 295 296 296 296 295 295 296 297 297
267 264 259 257 253 248 244 238 234 231 228 228 226 225 230 233 228 225 229 232 237 239 232 223 224 232 233 229 226 223 218 216 217 216 215 213 210 210 210 210 211 211 211 214 215 217 220 222 226 233 241 250 257 264 269 273 275 274 272 272 273 274 274 274 275 278 280 282 285 288 289 290 292 293 295 297 297 297 297 297 296 296 297 297 296
266 264 260 257 252 247 243 237 233 230 228 226 225 227 232 229 222 226 232 234 238 237 229 224 227 233 235 233 229 224 218 217 218 218 216 214 212 212 213 213 212 211 210 211 212 213 213 211 217 228 239 247 253 257 264 270 273 273 272 273 273 275 276 275 275 277 279 281 285 288 289 290 291 293 296 297 297 297 297 297 297 297 296 296 295
265 261 258 256 251 247 243 237 233 231 227 223 223 228 231 226 225 232 237 239 236 227 221 224 231 237 240 236 230 223 219 218 219 219 217 216 214 213 213 213 212 211 210 209 210 208 205 209 223 236 250 262 264 261 260 264 269 272 273 273 275 277 277 277 277 277 279 281 284 286 288 289 291 293 296 297 297 297 298 298 298 298 297 296 295
265 258 256 254 251 249 245 240 235 232 228 224 222 225 228 229 230 235 240 242 233 221 220 226 231 237 241 238 231 223 219 219 220 219 219 217 216 215 214 214 213 211 209 208 207 206 210 222 234 246 263 277 277 271 264 260 262 265 267 269 273 277 279 279 279 280 281 283 284 285 287 288 290 293 295 296 297 297 299 299 298 298 298 299 298
266 259 254 253 251 249 247 243 237 233 229 226 224 226 229 229 228 231 241 243 229 217 220 227 229 234 240 239 232 224 220 221 221 220 219 218 218 218 217 216 215 211 208 206 209 214 223 232 240 250 266 283 289 286 278 270 266 263 262 263 268 275 281 282 281 282 284 285 285 285 286 287 289 293 294 295 296 298 300 300 299 299 299 299 298
267 261 255 252 252 250 249 245 239 232 229 227 227 228 231 230 226 227 238 240 227 219 225 231 232 235 239 238 231 225 222 222 222 222 221 220 220 220 220 218 215 211 211 214 219 225 231 240 247 252 262 281 299 301 294 285 278 272 268 265 266 272 281 283 283 284 285 285 285 285 286 287 290 292 293 294 297 299 300 300 299 299 299 298 298
265 262 257 253 251 250 249 245 239 231 227 225 227 229 233 234 229 227 233 237 231 227 230 234 236 238 239 236 230 226 224 224 224 224 224 223 223 222 220 218 215 216 220 223 227 232 241 250 254 253 258 275 298 308 305 294 286 280 275 271 269 272 280 283 283 284 284 284 284 284 285 287 290 292 293 294 297 298 299 299 299 299 299 298 299
262 261 258 254 250 248 247 244 239 232 226 225 226 230 234 235 231 229 234 239 238 234 232 234 237 240 240 236 231 228 227 225 225 224 224 224 224 224 223 221 221 223 226 228 232 241 253 258 255 251 255 267 285 302 307 300 292 287 281 275 272 273 277 280 281 281 282 282 282 283 284 286 290 291 292 294 296 297 297 297 297 297 297 297 298
259 258 257 253 249 246 245 244 241 234 227 225 226 229 234 236 233 232 237 244 244 240 237 236 238 239 239 235 231 228 228 227 226 226 225 224 224 225 225 225 225 226 229 234 239 248 259 260 255 252 254 261 272 287 300 302 296 293 288 281 276 274 274 276 278 280 280 280 281 281 282 286 289 290 292 295 296 296 295 295 295 295 295 295 295
254 254 253 251 247 244 244 243 242 237 229 226 227 229 232 236 237 237 240 245 246 242 240 240 240 240 239 235 231 228 227 226 225 226 226 225 225 226 226 226 228 231 238 243 245 251 260 263 259 257 256 259 268 278 290 299 298 295 293 288 283 279 276 276 276 278 278 278 279 281 284 287 288 290 293 294 294 294 294 294 294 294 293 292 293
251 250 249 248 246 243 242 241 240 237 231 228 228 229 232 237 239 241 243 246 247 244 241 240 240 241 240 237 233 229 226 224 225 226 227 227 227 228 228 229 233 239 246 247 247 253 265 270 267 262 259 260 268 277 284 292 296 295 294 293 290 287 284 281 278 277 277 278 279 282 285 287 287 290 292 293 293 293 293 293 293 292 291 291 291
250 248 246 244 243 241 239 239 238 235 231 229 227 228 232 236 238 239 243 248 251 245 240 239 241 242 240 238 235 230 226 225 225 227 227 228 229 230 232 234 237 242 244 244 247 257 270 275 271 267 263 263 269 277 282 287 291 293 294 295 295 293 290 287 284 281 280 279 281 283 286 287 287 289 290 290 291 291 290 290 290 289 288 288 288
248 246 242 241 240 239 238 238 237 233 230 228 227 227 229 232 234 237 242 248 249 244 239 239 241 240 238 236 233 229 226 224 224 226 227 228 229 230 232 234 237 238 239 245 254 262 271 277 274 269 266 267 272 278 282 285 287 288 291 294 296 296 293 290 289 286 283 282 282 284 286 287 288 289 290 290 290 290 291 290 289 288 287 288 289
246 243 239 237 237 237 237 237 236 233 229 227 227 227 228 231 235 238 241 244 244 241 240 240 239 237 236 234 231 227 223 222 223 223 225 226 228 229 231 232 234 236 241 254 262 264 271 278 276 270 268 271 275 279 282 284 285 286 289 292 295 296 293 292 291 289 287 285 283 282 284 285 287 289 290 290 290 290 289 290 291 290 289 288 289
243 238 235 234 233 234 235 235 234 232 227 225 226 226 229 234 239 241 242 244 244 244 244 243 241 237 233 232 231 228 224 222 222 223 224 226 227 228 229 231 234 240 251 262 264 264 272 279 277 272 271 275 278 280 282 283 285 287 288 290 291 292 292 293 293 290 288 285 283 282 282 283 284 286 287 287 288 286 280 279 284 286 285 286 287
237 233 230 228 225 225 228 230 230 228 225 224 224 226 230 237 243 244 243 244 246 248 247 245 243 240 234 229 227 227 226 225 225 225 226 227 228 229 230 233 239 249 260 266 264 264 273 280 278 273 273 276 278 280 282 283 284 286 287 287 287 288 291 293 293 290 288 285 284 283 282 283 284 284 284 284 285 284 281 278 278 277 276 278 281
223 219 216 213 211 211 214 217 219 219 219 220 221 224 230 237 243 244 242 243 245 246 245 243 240 239 236 230 225 224 225 227 228 229 229 230 232 233 236 239 246 254 263 266 265 265 273 279 277 273 274 278 281 283 284 284 284 285 284 283 284 286 289 290 288 287 287 286 285 285 285 285 286 287 287 288 287 288 290 290 289 283 276 273 275
206 204 200 197 195 195 197 201 205 208 210 212 215 220 226 234 239 240 235 229 226 222 218 216 216 216 219 221 223 223 224 225 227 230 232 234 235 238 240 244 250 258 265 267 265 267 272 276 275 275 278 282 284 285 285 284 284 284 283 283 284 287 290 290 289 290 291 291 291 291 291 292 293 294 296 297 298 300 302 302 303 300 291 284 281
194 190 186 183 181 181 183 187 191 195 199 202 206 211 217 221 221 215 206 198 195 193 192 192 195 198 200 205 210 216 220 223 225 227 230 232 235 239 242 247 253 259 264 266 266 269 272 275 276 279 282 283 283 284 283 283 283 283 283 285 288 289 290 291 291 292 293 293 294 294 295 296 297 299 301 303 304 305 305 305 305 304 302 297 292
182 178 175 173 171 171 174 177 181 184 186 189 194 197 199 197 193 189 188 186 185 183 182 181 182 185 187 189 193 198 207 215 220 225 229 232 236 240 244 249 254 258 262 265 267 269 271 273 276 279 280 281 281 282 282 283 283 285 286 288 288 288 286 286 286 287 287 289 290 291 293 295 296 298 301 302 303 302 302 304 305 305 305 305 301
172 169 168 167 166 167 168 170 173 176 177 179 181 183 184 185 184 182 180 180 179 178 176 177 177 177 177 178 182 186 192 199 207 215 222 228 233 237 242 247 251 254 258 261 264 267 270 274 277 279 280 280 282 283 284 286 287 288 288 288 286 286 284 283 284 284 284 285 286 286 288 291 293 295 295 296 297 298 299 301 302 303 305 306 304
167 166 166 165 165 166 166 166 169 171 172 175 176 178 180 180 180 178 176 175 175 173 171 169 168 168 170 171 174 178 183 189 195 201 209 216 223 228 234 239 244 249 255 260 265 270 274 277 279 281 282 284 285 287 288 290 290 290 290 290 289 288 287 287 287 286 284 285 286 287 288 290 292 291 291 292 294 295 295 296 297 298 301 303 302
165 165 166 165 165 166 166 165 167 168 171 172 173 175 177 177 176 175 172 171 170 168 169 168 168 170 172 174 177 181 185 191 197 202 209 215 221 227 234 240 246 252 260 267 273 276 278 279 281 282 284 285 287 288 290 291 292 292 293 293 294 294 293 293 292 288 283 282 285 286 287 287 286 284 285 287 289 289 289 290 292 293 296 299 299
166 166 166 165 165 166 167 167 167 167 169 169 169 171 172 172 173 173 172 173 172 171 172 172 172 173 175 178 182 186 190 195 200 205 210 217 225 233 241 249 256 262 267 271 274 276 277 279 281 282 284 286 288 290 291 292 292 293 295 297 299 299 298 296 295 292 288 286 286 285 284 283 282 281 281 283 285 286 288 289 291 292 293 295 295
167 166 166 165 165 166 168 170 169 168 168 168 168 169 168 168 170 170 170 171 170 169 169 168 169 171 174 175 178 180 184 190 195 204 215 224 235 245 251 257 261 264 268 271 273 276 278 280 283 284 286 287 289 290 291 292 294 297 301 305 308 308 308 306 304 303 302 299 297 296 295 293 291 289 289 289 290 291 292 292 292 293 293 293 291
166 167 166 166 167 166 168 171 171 169 168 167 166 166 165 165 166 165 164 164 163 163 164 164 164 165 166 167 170 175 184 194 202 213 227 235 244 250 255 260 265 268 272 274 276 278 280 282 284 285 286 288 290 293 297 300 304 308 311 313 315 314 313 311 309 306 304 302 302 302 302 301 299 298 297 297 296 295 294 294 293 293 292 291 290
166 167 166 167 167 166 165 166 167 168 168 166 165 164 162 162 163 162 161 161 160 160 161 161 162 163 166 172 180 187 199 210 215 224 235 243 251 258 263 267 270 271 273 276 278 280 282 285 288 291 294 297 300 302 306 309 311 313 314 313 313 311 310 309 308 305 304 303 303 303 303 302 301 300 299 298 297 296 294 292 291 291 291 292 291
164 164 163 164 164 163 163 163 164 166 167 166 165 163 161 160 160 161 161 162 161 161 161 163 168 173 179 186 192 200 210 219 227 237 246 253 260 265 267 269 270 274 278 282 285 288 291 294 297 299 301 303 304 305 307 308 309 310 310 309 308 307 307 307 306 305 305 305 303 302 302 301 300 299 298 297 296 295 294 292 291 290 290 291 292
162 160 160 160 160 161 162 162 162 163 163 163 163 162 163 163 162 162 164 164 165 167 170 175 181 186 191 197 201 211 222 231 240 249 255 260 264 267 270 273 278 284 289 291 291 293 295 297 299 299 300 300 301 301 302 303 303 303 303 303 302 302 302 303 303 304 304 304 303 303 302 300 299 298 297 297 298 297 296 295 295 294 293 293 292
162 160 159 159 159 160 161 161 161 161 161 162 163 165 167 169 168 167 167 169 173 178 181 187 192 196 201 207 215 226 235 241 248 253 257 261 266 270 276 281 286 290 292 291 291 292 294 295 296 296 297 297 298 297 297 297 296 296 296 297 297 298 300 301 302 303 303 304 305 305 305 304 304 303 302 301 301 301 300 299 298 298 298 297 296
163 163 161 159 159 159 159 160 161 162 163 165 167 168 171 174 176 178 178 181 186 189 192 196 201 205 210 217 225 234 240 245 250 256 263 268 273 278 282 285 289 292 292 291 291 292 292 293 293 293 294 294 295 294 294 293 293 294 295 296 296 298 299 301 302 304 305 307 308 309 310 310 311 311 310 310 308 307 306 303 301 301 301 300 300
163 163 161 160 161 161 162 164 166 168 170 172 173 174 175 178 182 188 192 194 196 197 200 205 209 214 219 224 230 237 243 251 258 265 271 275 278 283 285 286 290 292 292 292 291 291 291 292 292 292 292 292 291 292 292 293 295 296 298 299 299 300 301 303 305 307 308 310 311 314 316 317 317 316 316 315 315 314 313 310 308 305 304 303 303
166 166 165 166 168 169 171 172 174 175 177 177 177 180 182 185 190 195 198 201 204 206 210 213 214 218 223 229 236 245 253 262 268 271 273 277 280 283 285 287 289 290 291 291 291 291 291 291 291 290 290 290 291 292 294 296 297 299 300 301 302 304 305 307 309 310 312 313 315 318 320 320 319 319 318 317 318 317 315 314 313 311 308 307 305
173 175 175 176 176 178 179 179 178 179 181 182 185 188 190 193 198 202 206 210 212 214 218 219 219 222 227 234 244 255 262 268 271 272 275 279 282 284 286 286 287 288 289 289 290 291 291 291 290 291 291 292 293 295 296 298 299 300 302 303 304 305 307 309 310 312 313 315 317 319 320 320 320 320 320 320 319 319 318 317 317 315 313 310 308
181 184 187 187 185 185 186 185 184 185 186 189 192 195 197 201 205 209 213 215 216 218 220 221 224 229 236 246 254 260 264 267 270 274 277 280 281 283 284 285 286 287 289 290 291 292 292 292 293 293 292 293 294 296 297 299 300 301 302 303 304 305 307 309 311 312 314 316 317 318 319 320 321 322 322 321 320 320 320 320 319 318 316 314 312
187 189 191 192 190 189 190 191 193 193 195 197 198 201 205 209 212 214 216 216 217 219 220 224 231 239 248 256 260 262 264 267 271 275 278 281 282 283 284 285 287 288 290 291 292 293 293 293 292 292 293 294 295 296 297 298 299 301 302 303 304 305 307 308 310 312 314 315 316 317 318 320 322 323 323 322 321 321 322 322 322 321 320 319 317
194 193 193 193 193 193 194 196 198 200 201 203 206 208 211 212 213 215 216 216 218 222 225 231 240 248 255 259 261 263 266 270 274 277 280 281 283 284 285 286 287 289 290 291 292 292 291 291 291 292 293 293 293 294 296 297 298 300 302 303 303 305 306 308 310 312 314 316 316 316 317 318 320 323 323 322 322 323 324 325 325 324 322 321 321
197 197 196 196 197 199 200 201 202 204 206 208 210 211 212 212 212 213 215 218 223 229 236 242 249 254 256 259 261 265 268 272 276 278 279 280 281 282 284 286 287 289 290 290 290 289 289 289 290 290 291 292 293 294 295 296 298 299 300 302 304 305 306 308 309 311 314 315 315 316 316 317 318 320 321 322 322 323 325 325 325 325 324 324 323
200 201 203 203 203 204 205 206 206 208 209 209 209 209 210 212 213 214 218 224 231 238 246 251 254 256 256 257 260 265 269 273 275 276 277 279 280 282 284 286 287 288 288 287 287 287 286 287 288 289 290 290 291 292 293 294 296 298 299 301 303 305 306 308 309 311 312 314 315 315 315 315 316 317 319 321 321 322 323 323 323 324 324 324 323
203 205 207 208 207 207 208 209 210 210 209 208 209 210 211 213 215 219 225 232 239 246 252 256 257 258 259 259 262 266 269 272 274 275 276 278 280 282 285 285 285 285 284 284 283 284 284 285 287 287 288 288 289 290 291 293 294 296 298 300 302 304 306 306 308 310 312 313 314 314 314 314 315 316 317 318 319 320 320 320 320 321 322 322 321
207 208 209 210 210 210 210 209 208 208 208 208 210 212 213 215 219 225 231 239 246 251 255 257 258 260 263 265 268 270 271 272 273 274 276 278 280 282 283 283 282 282 281 281 281 281 282 283 285 285 286 286 286 286 287 289 291 294 296 298 300 302 304 305 306 309 310 311 313 315 314 313 314 315 315 316 317 317 317 317 317 318 319 319 319
210 212 212 213 213 211 210 209 207 208 209 211 212 215 217 221 226 232 239 246 251 253 254 256 258 261 265 267 269 270 271 272 274 276 277 279 280 281 281 280 279 278 278 279 280 280 281 282 283 283 283 283 283 284 285 286 288 291 293 296 298 300 301 302 304 306 308 310 312 313 314 314 315 315 315 315 315 314 314 314 315 316 317 317 318
212 213 213 213 212 211 210 210 209 210 212 214 217 220 224 229 234 240 245 249 251 252 254 257 260 263 266 268 269 270 272 274 276 277 278 279 279 279 279 278 276 276 277 279 280 280 281 281 281 280 279 279 280 281 282 284 286 289 291 293 296 297 298 300 302 303 305 306 309 310 312 314 316 316 315 315 314 313 312 312 312 314 315 316 316
213 212 211 211 210 210 210 211 212 214 217 219 223 227 232 236 241 244 246 248 251 254 257 260 263 265 267 269 270 272 274 275 276 277 277 277 277 277 277 276 275 275 276 278 279 280 281 280 279 278 277 276 276 278 280 283 285 288 290 292 293 295 296 297 299 301 303 304 306 308 309 311 314 316 316 316 315 313 312 311 310 311 312 314 314
212 212 211 210 210 211 212 215 217 219 223 226 229 233 236 239 242 245 248 251 254 257 260 263 266 268 269 271 273 274 275 276 277 277 276 276 276 275 275 274 275 275 276 277 279 279 279 278 277 276 274 273 273 274 277 281 284 287 289 290 291 292 293 295 298 300 302 303 304 306 307 309 311 313 313 313 313 313 312 310 309 309 310 311 312
211 210 210 211 211 213 216 218 221 225 228 230 233 236 239 242 245 248 252 255 258 261 263 265 267 269 271 272 274 275 276 276 276 275 275 274 274 274 274 274 275 276 276 277 277 278 278 276 275 273 272 272 272 272 274 278 282 286 287 288 288 288 290 292 295 297 300 302 303 305 306 308 309 308 308 309 311 311 311 310 309 309 310 310 310
210 209 210 212 214 217 220 223 226 229 231 234 237 240 243 247 250 254 257 260 262 264 265 267 268 270 271 272 273 275 275 275 274 273 273 273 273 273 274 275 275 276 276 276 276 276 276 274 273 272 271 271 270 271 273 277 281 283 284 284 284 284 286 288 291 294 296 299 301 303 305 307 308 307 306 306 307 308 308 307 306 307 307 308 308
209 210 213 216 218 221 224 227 230 233 236 240 244 247 250 254 256 258 260 262 263 265 267 268 269 270 271 272 273 273 273 273 273 272 272 272 272 273 274 275 276 276 276 276 275 274 273 272 271 271 271 270 271 271 273 276 279 281 280 280 280 281 282 284 286 289 292 295 299 302 304 306 306 305 305 305 305 305 305 304 304 305 305 305 305